STARLINK-32960, 63197

Orbit data source: Space-Track

STARLINK-32960, 63197 is a payload satellite owned by SpaceX/Seattle (US) in LEO that was launched on Thu, 13 Mar 2025 UTC via an FALCON 9 launch vehicle from the Air Force Eastern Test Range (AFETR). Payload-class satellites include a variety of spacecraft equipped with specific instruments for various scientific and technological missions. These include communications satellites like Starlink; space stations such as the ISS; scientific satellites like the Hubble; Earth observation satellites from companies like Planet Labs, Umbra, and HawkEye 360; GPS; miniature CubeSats for education and research; and military/defense satellites.

Loading next visibility...
Identifier
63197, 2025-048Q
Orbit
LEO
Country
Flag of USUS
Related business
Manufacturer
SpaceX/Seattle
Mission
Operational Commercial Communications
Bus & Motor
STARLINK V2M, Unknown motor
Mass
730 kg wet, ~700 kg dry
Launch date (UTC)
2025-03-13 (1 year ago)
Launch vehicle
FALCON 9
Launch site
Air Force Eastern Test Range (AFETR)
Object type
Payload
Rocket body
Debris
Shape & HBR
Box + 2 Pan, 17.7 m
Radar Cross Section
33.884 m², Large (>1 m²)

Expand to show TLE details & history
Last TLE update: 10 hours ago

TLE from 10 hours ago
0 STARLINK-32960
1 63197U 25048Q   26171.43391980  .00010728  00000-0  39858-3 0  9993
2 63197  42.9992 225.2391 0001202 280.9191  79.1526 15.27599286 72803
Epoch: 2026-06-20T10:24Z
TLE epoch observation values (Epoch: 2026-06-20T10:24:50.670Z)
Latitude
0.00002°
Longitude
160.37939°
Altitude
482.612 km
Speed
7.626 km/s
True Right ascension
15h 00m 57s
True Declination
0° 00' 00"
Sunlit
Object was in full shadow at epoch
Visualization orbit readout
Latitude
Unknown
Longitude
Unknown
Altitude
Unknown
Speed
Unknown
Apparent Right ascension
Unknown
Apparent Declination
Unknown
Sunlit
N/A
Visualization observer readout
Local Sidereal Time
07:20:56
Azimuth
Unknown
Elevation
Unknown
Doppler factor
Unknown
Orbital elements
Apogee altitude
485.762 km
Perigee altitude
484.112 km
Semi-major axis
6,863.074 km
Eccentricity
0.00012
Inclination
42.9992°
RAAN
225.2391°
Arg. of periapsis
280.9191°
True anomaly
79.16613°
Mean anomaly
79.1526°
Eccentric anomaly
79.15936°
Mean motion
3.81738 °/min
Orbital period
94.31 mins
BSTAR
0.00039858
Loading maneuver chart data...
Computing Atmospheric mass density...
Loading historical data...
Loading historical data...
Loading historical data...
Loading historical data...
Loading historical data...
Loading historical data...
Loading historical data...

Documentation

Showing up to 5 results
|